OneWeb SL0621

operational
NORAD ID: 55162 Int'l Des: 2023-004 Owner: ONEWEBN Country: UK Constellation: oneweb
LEOCIRCULARPOLARONEWEB_TYPE

About OneWeb SL0621

Description loading...

Live Position

Loading 3D Globe...

Upcoming Passes

Altitude History

Altitude vs Time

uPlot chart will show altitude changes over time

Two-Line Element Set

1 55162U 23004Y 25260.93847516 .00000547 00000-0 15061-2 0 9997
2 55162 87.8787 75.2854 0001882 85.0808 275.0534 13.11417318130128
Epoch: Sep 17, 2025 • Age: 12 hours

Current Status

Altitude 1219.7 km
Velocity 7.25 km/s
Sub-Earth Point 9.76°N, 101.61°E
Launch Date Jan 10, 2023
Age 2.6 years
Type internet

Technical Details

Classification Payload
Mass 148.00 kg
Dry Mass 140.00 kg
Total Mass 148.00 kg
Length 1.30 m
Diameter 1.00 m
Span 5.00 m
Shape Trapezoid+2 pan
Manufacturer ONEWUS
Bus Type ARROW
Phase Status In Orbit
Owner/State ONEWEBN/UK

Large Constellations

Loading constellations...